AU224 Weather Reports


Display with metric or nautical units.
time (UTC)temp
F
wind
direction
speed
MPH
gust
MPH
rain 1hr
in
rain 24hr
in
rain mn
in
humidity
%
barometer
mb
20260904010052 62 0 0.0 2.0 0.00 0.00 0.00 65 1019.5
20260904004546 62 198 0.0 4.0 0.00 0.00 0.00 67 1019.4
20260904003050 61 0 0.0 4.0 0.00 0.00 0.00 69 1019.4
20260904001551 61 0 0.0 1.0 0.00 0.00 0.00 71 1019.5
20260903234545 61 0 0.0 0.0 0.00 0.00 0.00 72 1019.9
20260903233053 60 0 0.0 0.0 0.00 0.00 0.00 72 1020.0
20260903231550 60 0 0.0 0.0 0.00 0.00 0.00 72 1020.0
20260903230052 61 0 0.0 0.0 0.00 0.00 0.00 71 1020.1
20260903224558 61 0 0.0 0.0 0.00 0.00 0.00 71 1020.1
20260903223048 61 0 0.0 0.0 0.00 0.00 0.00 71 1020.1
20260903221551 61 0 0.0 0.0 0.00 0.00 0.00 71 1020.2
20260903220056 61 0 0.0 0.0 0.00 0.00 0.00 69 1020.3
20260903214603 61 0 0.0 0.0 0.00 0.00 0.00 69 1020.2
20260903213052 61 0 0.0 0.0 0.00 0.00 0.00 67 1020.2
20260903211553 62 0 0.0 0.0 0.00 0.00 0.00 67 1020.1
20260903210123 62 0 0.0 0.0 0.00 0.00 0.00 67 1019.8
20260903204603 63 0 0.0 0.0 0.00 0.00 0.00 66 1020.0
20260903203053 64 0 0.0 0.0 0.00 0.00 0.00 65 1020.3
20260903201550 64 0 0.0 0.0 0.00 0.00 0.00 63 1020.4
20260903200116 65 0 0.0 0.0 0.00 0.00 0.00 61 1019.9
20260903194556 66 0 0.0 3.0 0.00 0.00 0.00 61 1019.7
20260903193056 66 0 0.0 0.0 0.00 0.00 0.00 59 1019.6
20260903191600 67 0 0.0 0.0 0.00 0.00 0.00 58 1019.5
20260903190054 68 0 0.0 2.0 0.00 0.00 0.00 57 1019.5
20260903184557 69 0 0.0 0.0 0.00 0.00 0.00 55 1019.4
20260903183054 69 0 0.0 2.0 0.00 0.00 0.00 54 1019.3
20260903181554 70 0 0.0 1.0 0.00 0.00 0.00 53 1019.2
20260903180053 71 0 0.0 6.0 0.00 0.00 0.00 52 1019.1
20260903174600 71 0 0.0 3.0 0.00 0.00 0.00 52 1018.9
20260903173049 71 0 0.0 0.0 0.00 0.00 0.00 51 1018.9
20260903171609 72 0 0.0 2.0 0.00 0.00 0.00 50 1018.9
20260903170056 72 0 0.0 5.0 0.00 0.00 0.00 49 1018.9
20260903164548 73 0 0.0 8.0 0.00 0.00 0.00 47 1019.0
20260903163053 73 0 0.0 10.0 0.00 0.00 0.00 47 1018.9
20260903161555 74 273 3.0 13.0 0.00 0.00 0.00 47 1019.0
20260903160051 74 237 2.0 13.0 0.00 0.00 0.00 47 1019.1
20260903154551 76 273 6.0 13.0 0.00 0.00 0.00 46 1019.0
20260903153106 76 360 9.0 0.0 0.00 0.00 0.00 45 1018.9
20260903151607 75 360 3.0 11.0 0.00 0.00 0.00 47 1018.9
20260903150100 75 283 6.0 14.0 0.00 0.00 0.00 45 1019.0
20260903144551 76 258 5.0 11.0 0.00 0.00 0.00 46 1019.1
20260903143059 74 360 5.0 14.0 0.00 0.00 0.00 46 1019.2
20260903141554 74 360 4.0 15.0 0.00 0.00 0.00 45 1019.2
20260903140105 75 264 2.0 15.0 0.00 0.00 0.00 44 1019.4
20260903134553 75 230 4.0 12.0 0.00 0.00 0.00 46 1019.5
20260903133048 74 279 3.0 15.0 0.00 0.00 0.00 48 1019.5
20260903131605 74 272 11.0 14.0 0.00 0.00 0.00 48 1019.6
20260903130052 74 241 0.0 13.0 0.00 0.00 0.00 49 1019.5
20260903124607 74 360 6.0 13.0 0.00 0.00 0.00 49 1019.5
20260903123054 74 0 9.0 18.0 0.00 0.00 0.00 48 1019.5
20260903121550 75 268 9.0 17.0 0.00 0.00 0.00 47 1019.6
20260903114552 76 276 4.0 16.0 0.00 0.00 0.00 48 1019.7
20260903113057 76 271 10.0 16.0 0.00 0.00 0.00 48 1019.9
20260903111552 75 286 8.0 19.0 0.00 0.00 0.00 47 1020.0
20260903110049 76 281 9.0 17.0 0.00 0.00 0.00 50 1019.9
20260903104554 74 269 10.0 18.0 0.00 0.00 0.00 51 1020.1
20260903103053 74 148 7.0 15.0 0.00 0.00 0.00 53 1020.0
20260903101557 74 360 8.0 14.0 0.00 0.00 0.00 53 1020.1
20260903100055 73 360 4.0 16.0 0.00 0.00 0.00 53 1020.2
20260903094637 72 360 4.0 0.0 0.00 0.00 0.00 55 1020.2
20260903093054 72 276 5.0 13.0 0.00 0.00 0.00 54 1020.4
20260903091554 71 320 6.0 14.0 0.00 0.00 0.00 56 1020.3
20260903090057 70 360 9.0 15.0 0.00 0.00 0.00 56 1020.6
20260903084551 69 360 3.0 14.0 0.00 0.00 0.00 57 1020.5
20260903083048 69 279 5.0 12.0 0.00 0.00 0.00 58 1020.4
20260903081548 68 360 4.0 10.0 0.00 0.00 0.00 59 1020.3
20260903080100 68 0 0.0 0.0 0.00 0.00 0.00 60 1020.2
20260903074552 65 0 0.0 7.0 0.00 0.00 0.00 68 1020.0
20260903073050 63 172 0.0 8.0 0.00 0.00 0.00 71 1020.1
20260903071554 61 0 0.0 6.0 0.00 0.00 0.00 76 1020.3
20260903070053 59 0 0.0 5.0 0.00 0.00 0.00 80 1020.5
20260903064554 58 0 0.0 3.0 0.00 0.00 0.00 83 1020.5
20260903063059 56 0 0.0 3.0 0.00 0.00 0.00 83 1020.4
20260903061554 55 0 0.0 0.0 0.00 0.00 0.00 82 1020.3
20260903060056 55 0 0.0 0.0 0.00 0.00 0.00 82 1020.2
20260903054549 54 0 0.0 0.0 0.00 0.00 0.00 81 1020.2
20260903053102 54 0 0.0 0.0 0.00 0.00 0.00 81 1020.0
20260903051554 53 0 0.0 0.0 0.00 0.00 0.00 80 1020.0
20260903050049 53 0 0.0 0.0 0.00 0.00 0.00 79 1020.0
20260903044546 53 0 0.0 0.0 0.00 0.00 0.00 79 1020.0
20260903043053 53 0 0.0 0.0 0.00 0.00 0.00 78 1019.9
20260903041607 54 0 0.0 0.0 0.00 0.00 0.00 77 1019.9
20260903034553 54 0 0.0 0.0 0.00 0.00 0.00 76 1019.8
20260903033052 55 0 0.0 0.0 0.00 0.00 0.00 76 1019.8
20260903031551 55 0 0.0 0.0 0.00 0.00 0.00 76 1019.9
20260903030049 56 0 0.0 0.0 0.00 0.00 0.00 75 1019.9
20260903024555 56 0 0.0 0.0 0.00 0.00 0.00 75 1019.9
20260903023055 56 0 0.0 0.0 0.00 0.00 0.00 75 1019.9
20260903021552 57 0 0.0 0.0 0.00 0.00 0.00 75 1019.9
20260903020047 57 0 0.0 0.0 0.00 0.00 0.00 75 1019.8
20260903014556 57 0 0.0 0.0 0.00 0.00 0.00 75 1019.8
20260903013052 57 0 0.0 0.0 0.00 0.00 0.00 75 1019.9
20260903011600 57 0 0.0 0.0 0.00 0.00 0.00 75 1019.8